Flag for Myanmar Weather past 2 weeks in Yangon, Myanmar

Now
91 °F

Clear.


Feels Like: 91 °F
Forecast: 75 / 98 °F
Wind: 8 mph from Northeast

Location: Rangoon Airport

Current Time: Mar 3, 2015 at 12:22:27 PM

Latest Report: Mar 3, 2015 at 12:00 PM


Visibility: 5 mi

Pressure: N/A

Humidity: 34%

Dew point: 59 °F

Location of YangonLocation

Historic Weather in Yangon — Graph

°F

Yangon temperature yesterday

Maximum temperature yesterday: 99 °F (at 3:00 PM)
Minimum temperature yesterday: 73 °F (at 6:00 AM)
Average temperature yesterday: 86 °F

Past Weeks' High & Low Weather Summary

 TemperatureHumidityPressure
High100 °F (Mar 1, 4:30 PM)100% (Feb 20, 7:00 AM)30.01 "Hg (Feb 20, 7:00 AM)
Low66 °F (Feb 17, 7:00 AM)17% (Feb 20, 2:30 PM)29.77 "Hg (Feb 17, 4:30 PM)
Average82 °F55%29.88 "Hg
* Reported Feb 16 10:30 AM — Mar 3 11:00 AM, Yangon, Weather by CustomWeather, © 2015

Note: Actual official high and low records may vary slightly from our data, if they occured in-between our weather recording intervals... More about our weather records

Advertising

Yangon weather history for previous 24 hours

 ConditionsComfort  
Time TempWeatherWind HumidityBarometerVisibility
11:00 AM
Tue, Mar 3
90 °FClear.5 mph55%N/A4 mi
10:00 AM84 °FClear.3 mph51%N/A4 mi
9:30 AM81 °FClear.3 mph62%29.92 "Hg4 mi
9:00 AM79 °FClear.2 mph70%29.92 "Hg4 mi
8:30 AM77 °FHaze.2 mph61%29.89 "Hg4 mi
8:00 AM75 °FHaze.5 mph65%29.89 "Hg4 mi
7:30 AM73 °FHaze.5 mph74%29.89 "Hg4 mi
7:00 AM73 °FFog.3 mph74%29.86 "Hg3 mi
6:00 AM73 °FClear.2 mph74%29.86 "Hg4 mi
12:30 AM79 °FClear.6 mph54%29.86 "Hg4 mi
12:00 AM79 °FClear.6 mph54%29.89 "Hg4 mi
11:30 PM
Mon, Mar 2
81 °FClear.5 mph54%29.89 "Hg4 mi
11:00 PM81 °FClear.5 mph54%29.89 "Hg4 mi
10:30 PM82 °FClear.3 mph48%29.89 "Hg4 mi
9:30 PM84 °FClear.5 mph45%29.89 "Hg4 mi
9:00 PM84 °FClear.6 mph45%29.86 "Hg4 mi
8:30 PM86 °FClear.5 mph40%29.86 "Hg4 mi
8:00 PM86 °FClear.6 mph40%29.83 "Hg4 mi
7:30 PM88 °FHaze.3 mph38%29.80 "Hg4 mi
7:00 PM91 °FHaze.5 mph34%29.80 "Hg4 mi
6:00 PM95 °FHaze.5 mph28%29.77 "Hg4 mi
5:30 PM97 °FClear.2 mph30%29.77 "Hg5 mi
5:00 PM99 °FPassing clouds.5 mph27%29.77 "Hg5 mi
4:30 PM99 °FPassing clouds.3 mph27%29.77 "Hg6 mi
4:00 PM99 °FPassing clouds.3 mph27%29.80 "Hg6 mi
3:30 PM99 °FPassing clouds.3 mph25%29.80 "Hg6 mi
3:00 PM99 °FClear.3 mph27%29.80 "Hg6 mi
2:30 PM97 °FClear.6 mph30%29.83 "Hg6 mi
2:00 PM97 °FClear.3 mph30%29.83 "Hg6 mi
1:30 PM95 °FClear.6 mph28%29.86 "Hg5 mi
1:00 PM95 °FClear.6 mph28%29.89 "Hg5 mi
12:30 PM93 °FClear.5 mph34%29.89 "Hg5 mi
12:00 PM91 °FClear.5 mph38%29.89 "Hg5 mi
Weather by CustomWeather, © 2015

See weather overviewHow to use our weather pages